Date,TemperatureHighF,TemperatureAvgF,TemperatureLowF,DewpointHighF,DewpointAvgF,DewpointLowF,HumidityHigh,HumidityAvg,HumidityLow,PressureMaxIn,PressureMinIn,WindSpeedMaxMPH,WindSpeedAvgMPH,GustSpeedMaxMPH,PrecipitationSumIn
2013-1-1,27,25,24,-100,-100,-100,0,0,100,0.00,40.00,0,-999,0,0.02
2013-1-2,25,23,22,-100,-100,-100,0,0,100,0.00,40.00,0,-999,0,0.02
2013-1-3,23,17,14,-100,-100,-100,0,0,100,0.00,40.00,0,-999,0,0.01
2013-1-4,25,21,15,-100,-100,-100,0,0,100,0.00,40.00,0,-999,0,0.02
2013-1-5,30,25,21,-100,-100,-100,0,0,100,0.00,40.00,0,-999,0,0.02
2013-1-6,36,30,26,-100,-100,-100,0,0,100,0.00,40.00,0,-999,0,0.08
2013-1-7,36,33,31,-100,-100,-100,0,0,100,0.00,40.00,0,-999,0,0.32
2013-1-8,40,35,31,-100,-100,-100,0,0,100,0.00,40.00,0,-999,0,0.32
2013-1-9,46,42,34,-100,-100,-100,0,0,100,0.00,40.00,0,-999,0,0.64
2013-1-10,36,29,22,-100,-100,-100,0,0,100,0.00,40.00,0,-999,0,0.41
2013-1-11,23,19,13,-100,-100,-100,0,0,100,0.00,40.00,0,-999,0,0.02
2013-1-12,19,14,11,-100,-100,-100,0,0,100,0.00,40.00,0,-999,0,0.09
2013-1-13,20,15,10,-100,-100,-100,0,0,100,0.00,40.00,0,-999,0,0.02
2013-1-14,21,19,16,-100,-100,-100,0,0,100,0.00,40.00,0,-999,0,0.11
2013-1-15,26,22,20,-100,-100,-100,0,0,100,0.00,40.00,0,-999,0,0.01
2013-1-16,31,25,19,-100,-100,-100,0,0,100,0.00,40.00,0,-999,0,0.01
2013-1-17,31,26,22,-100,-100,-100,0,0,100,0.00,40.00,0,-999,0,0.01
2013-1-18,33,26,21,-100,-100,-100,0,0,100,0.00,40.00,0,-999,0,0.01
2013-1-19,33,28,23,-100,-100,-100,0,0,100,0.00,40.00,0,-999,0,0.01
2013-1-20,29,23,19,-100,-100,-100,0,0,100,0.00,40.00,0,-999,0,0.01
2013-1-21,34,26,21,-100,-100,-100,0,0,100,0.00,40.00,0,-999,0,0.01
2013-1-22,29,24,16,-100,-100,-100,0,0,100,0.00,40.00,0,-999,0,0.01
2013-1-23,31,26,20,-100,-100,-100,0,0,100,0.00,40.00,0,-999,0,0.21
2013-1-24,40,35,29,-100,-100,-100,0,0,100,0.00,40.00,0,-999,0,0.40
2013-1-25,36,33,30,-100,-100,-100,0,0,100,0.00,40.00,0,-999,0,0.20
2013-1-26,37,35,31,-100,-100,-100,0,0,100,0.00,40.00,0,-999,0,0.46
2013-1-27,33,30,29,-100,-100,-100,0,0,100,0.00,40.00,0,-999,0,0.11
2013-1-28,33,29,25,-100,-100,-100,0,0,100,0.00,40.00,0,-999,0,0.07
2013-1-29,25,22,20,-100,-100,-100,0,0,100,0.00,40.00,0,-999,0,0.01
2013-1-30,42,32,21,-100,-100,-100,0,0,100,0.00,40.00,0,-999,0,0.05
2013-1-31,38,37,35,-100,-100,-100,0,0,100,0.00,40.00,0,-999,0,0.11
2013-2-1,42,38,35,-100,-100,-100,0,0,100,0.00,40.00,0,-999,0,0.08
2013-2-2,41,33,30,-100,-100,-100,0,0,100,0.00,40.00,0,-999,0,0.02
2013-2-3,41,34,28,-100,-100,-100,0,0,100,0.00,40.00,0,-999,0,0.01
2013-2-4,43,40,35,-100,-100,-100,0,0,100,0.00,40.00,0,-999,0,0.02
2013-2-5,45,37,31,-100,-100,-100,0,0,100,0.00,40.00,0,-999,0,0.01
2013-2-6,40,36,32,-100,-100,-100,0,0,100,0.00,40.00,0,-999,0,0.21
2013-2-7,40,32,29,-100,-100,-100,0,0,100,0.00,40.00,0,-999,0,0.01
2013-2-8,39,32,29,-100,-100,-100,0,0,100,0.00,40.00,0,-999,0,0.01
2013-2-9,34,29,24,-100,-100,-100,0,0,100,0.00,40.00,0,-999,0,0.01
2013-2-10,34,26,21,-100,-100,-100,0,0,100,0.00,40.00,0,-999,0,0.01
2013-2-11,34,29,26,-100,-100,-100,0,0,100,0.00,40.00,0,-999,0,0.02
2013-2-12,41,35,31,-100,-100,-100,0,0,100,0.00,40.00,0,-999,0,0.01
2013-2-13,44,40,34,-100,-100,-100,0,0,100,0.00,40.00,0,-999,0,0.10
2013-2-14,40,34,26,-100,-100,-100,0,0,100,0.00,40.00,0,-999,0,0.01
2013-2-15,41,34,30,-100,-100,-100,0,0,100,0.00,40.00,0,-999,0,0.01
2013-2-16,37,34,30,-100,-100,-100,0,0,100,0.00,40.00,0,-999,0,0.12
2013-2-17,37,34,31,-100,-100,-100,0,0,100,0.00,40.00,0,-999,0,0.20
2013-2-18,37,30,25,-100,-100,-100,0,0,100,0.00,40.00,0,-999,0,0.02
2013-2-19,36,28,21,-100,-100,-100,0,0,100,0.00,40.00,0,-999,0,0.02
2013-2-20,36,30,26,-100,-100,-100,0,0,100,0.00,40.00,0,-999,0,0.09
2013-2-21,33,29,24,-100,-100,-100,0,0,100,0.00,40.00,0,-999,0,0.01
2013-2-22,36,32,29,-100,-100,-100,0,0,100,0.00,40.00,0,-999,0,0.09
2013-2-23,39,33,28,-100,-100,-100,0,0,100,0.00,40.00,0,-999,0,0.17
2013-2-24,36,30,23,-100,-100,-100,0,0,100,0.00,40.00,0,-999,0,0.01
2013-2-25,35,32,30,-100,-100,-100,0,0,100,0.00,40.00,0,-999,0,0.02
2013-2-26,36,33,31,-100,-100,-100,0,0,100,0.00,40.00,0,-999,0,0.09
2013-2-27,37,30,23,-100,-100,-100,0,0,100,0.00,40.00,0,-999,0,0.02
2013-2-28,39,33,29,-100,-100,-100,0,0,100,0.00,40.00,0,-999,0,0.02
2013-3-1,46,40,34,-100,-100,-100,0,0,100,0.00,40.00,0,-999,0,0.20
2013-3-2,53,43,34,-100,-100,-100,0,0,100,0.00,40.00,0,-999,0,0.22
2013-3-3,40,33,25,-100,-100,-100,0,0,100,0.00,40.00,0,-999,0,0.74
2013-3-4,31,25,20,-100,-100,-100,0,0,100,0.00,40.00,0,-999,0,0.01
2013-3-5,34,22,10,-100,-100,-100,0,0,100,0.00,40.00,0,-999,0,0.01
2013-3-6,36,30,23,-100,-100,-100,0,0,100,0.00,40.00,0,-999,0,0.04
2013-3-7,43,37,33,-100,-100,-100,0,0,100,0.00,40.00,0,-999,0,0.15
2013-3-8,43,33,24,-100,-100,-100,0,0,100,0.00,40.00,0,-999,0,0.02
2013-3-9,48,35,27,-100,-100,-100,0,0,100,0.00,40.00,0,-999,0,0.01
2013-3-10,46,37,30,-100,-100,-100,0,0,100,0.00,40.00,0,-999,0,0.02
2013-3-11,45,39,31,-100,-100,-100,0,0,100,0.00,40.00,0,-999,0,0.01
2013-3-12,38,33,30,-100,-100,-100,0,0,100,0.00,40.00,0,-999,0,0.42
2013-3-13,48,42,35,-100,-100,-100,0,0,100,0.00,40.00,0,-999,0,0.28
2013-3-14,56,42,35,-100,-100,-100,0,0,100,0.00,40.00,0,-999,0,0.01
2013-3-15,56,48,38,-100,-100,-100,0,0,100,0.00,40.00,0,-999,0,0.03
2013-3-16,46,39,34,-100,-100,-100,0,0,100,0.00,40.00,0,-999,0,0.12
2013-3-17,36,33,26,-100,-100,-100,0,0,100,0.00,40.00,0,-999,0,0.31
2013-3-18,34,29,24,-100,-100,-100,0,0,100,0.00,40.00,0,-999,0,0.09
2013-3-19,39,31,22,-100,-100,-100,0,0,100,0.00,40.00,0,-999,0,0.02
2013-3-20,42,35,28,-100,-100,-100,0,0,100,0.00,40.00,0,-999,0,0.55
2013-3-21,39,34,29,-100,-100,-100,0,0,100,0.00,40.00,0,-999,0,0.32
2013-3-22,33,28,26,-100,-100,-100,0,0,100,0.00,40.00,0,-999,0,0.10
2013-3-23,33,23,14,-100,-100,-100,0,0,100,0.00,40.00,0,-999,0,0.02
2013-3-24,36,25,18,-100,-100,-100,0,0,100,0.00,40.00,0,-999,0,0.02
2013-3-25,42,27,15,-100,-100,-100,0,0,100,0.00,40.00,0,-999,0,0.01
2013-3-26,50,33,20,-100,-100,-100,0,0,100,0.00,40.00,0,-999,0,0.02
2013-3-27,49,36,25,-100,-100,-100,0,0,100,0.00,40.00,0,-999,0,0.02
2013-3-28,51,41,33,-100,-100,-100,0,0,100,0.00,40.00,0,-999,0,0.01
2013-3-29,46,40,36,-100,-100,-100,0,0,100,0.00,40.00,0,-999,0,0.03
2013-3-30,59,40,31,-100,-100,-100,0,0,100,0.00,40.00,0,-999,0,0.04
2013-3-31,58,42,33,-100,-100,-100,0,0,100,0.00,40.00,0,-999,0,0.05
2013-4-1,61,42,32,-100,-100,-100,0,0,100,0.00,40.00,0,-999,0,0.04
2013-4-2,64,46,32,-100,-100,-100,0,0,100,0.00,40.00,0,-999,0,0.04
2013-4-3,52,45,41,-100,-100,-100,0,0,100,0.00,40.00,0,-999,0,0.03
2013-4-4,58,44,34,-100,-100,-100,0,0,100,0.00,40.00,0,-999,0,0.25
2013-4-5,53,46,42,-100,-100,-100,0,0,100,0.00,40.00,0,-999,0,0.45
2013-4-6,51,42,38,-100,-100,-100,0,0,100,0.00,40.00,0,-999,0,0.22
2013-4-7,44,38,32,-100,-100,-100,0,0,100,0.00,40.00,0,-999,0,0.70
2013-4-8,37,29,24,-100,-100,-100,0,0,100,0.00,40.00,0,-999,0,0.54
2013-4-9,42,30,22,-100,-100,-100,0,0,100,0.00,40.00,0,-999,0,0.01
2013-4-10,44,38,32,-100,-100,-100,0,0,100,0.00,40.00,0,-999,0,0.01
2013-4-11,46,42,38,-100,-100,-100,0,0,100,0.00,40.00,0,-999,0,0.07
2013-4-12,49,40,32,-100,-100,-100,0,0,100,0.00,40.00,0,-999,0,0.17
2013-4-13,42,35,32,-100,-100,-100,0,0,100,0.00,40.00,0,-999,0,0.55
2013-4-14,41,34,27,-100,-100,-100,0,0,100,0.00,40.00,0,-999,0,0.12
2013-4-15,34,30,25,-100,-100,-100,0,0,100,0.00,40.00,0,-999,0,0.02
2013-4-16,37,31,25,-100,-100,-100,0,0,100,0.00,40.00,0,-999,0,0.02
2013-4-17,47,34,23,-100,-100,-100,0,0,100,0.00,40.00,0,-999,0,0.07
2013-4-18,54,42,32,-100,-100,-100,0,0,100,0.00,40.00,0,-999,0,0.02
2013-4-19,47,42,37,-100,-100,-100,0,0,100,0.00,40.00,0,-999,0,0.14
2013-4-20,52,44,35,-100,-100,-100,0,0,100,0.00,40.00,0,-999,0,0.62
2013-4-21,35,29,22,-100,-100,-100,0,0,100,0.00,40.00,0,-999,0,0.46
2013-4-22,41,29,19,-100,-100,-100,0,0,100,0.00,40.00,0,-999,0,0.25
2013-4-23,45,34,27,-100,-100,-100,0,0,100,0.00,40.00,0,-999,0,0.03
2013-4-24,56,43,30,-100,-100,-100,0,0,100,0.00,40.00,0,-999,0,0.02
2013-4-25,62,49,38,-100,-100,-100,0,0,100,0.00,40.00,0,-999,0,0.06
2013-4-26,69,53,39,-100,-100,-100,0,0,100,0.00,40.00,0,-999,0,0.03
2013-4-27,64,58,47,-100,-100,-100,0,0,100,0.00,40.00,0,-999,0,0.02
2013-4-28,56,51,43,-100,-100,-100,0,0,100,0.00,40.00,0,-999,0,0.02
2013-4-29,52,44,32,-100,-100,-100,0,0,100,0.00,40.00,0,-999,0,0.40
2013-4-30,40,34,29,-100,-100,-100,0,0,100,0.00,40.00,0,-999,0,0.12
2013-5-1,52,40,32,-100,-100,-100,0,0,100,0.00,40.00,0,-999,0,0.06
2013-5-2,60,45,34,-100,-100,-100,0,0,100,0.00,40.00,0,-999,0,0.01
2013-5-3,55,46,41,-100,-100,-100,0,0,100,0.00,40.00,0,-999,0,0.02
2013-5-4,62,48,38,-100,-100,-100,0,0,100,0.00,40.00,0,-999,0,0.01
2013-5-5,70,51,37,-100,-100,-100,0,0,100,0.00,40.00,0,-999,0,0.01
2013-5-6,74,53,40,-100,-100,-100,0,0,100,0.00,40.00,0,-999,0,0.01
2013-5-7,71,56,42,-100,-100,-100,0,0,100,0.00,40.00,0,-999,0,0.01
2013-5-8,75,57,43,-100,-100,-100,0,0,100,0.00,40.00,0,-999,0,0.01
2013-5-9,80,61,46,-100,-100,-100,0,0,100,0.00,40.00,0,-999,0,0.01
2013-5-10,75,59,47,-100,-100,-100,0,0,100,0.00,40.00,0,-999,0,0.01
2013-5-11,82,62,46,-100,-100,-100,0,0,100,0.00,40.00,0,-999,0,0.02
2013-5-12,82,66,52,-100,-100,-100,0,0,100,0.00,40.00,0,-999,0,0.02
2013-5-13,70,64,52,-100,-100,-100,0,0,100,0.00,40.00,0,-999,0,0.21
2013-5-14,60,52,42,-100,-100,-100,0,0,100,0.00,40.00,0,-999,0,0.07
2013-5-15,63,52,39,-100,-100,-100,0,0,100,0.00,40.00,0,-999,0,0.03
2013-5-16,61,52,45,-100,-100,-100,0,0,100,0.00,40.00,0,-999,0,0.01
2013-5-17,65,51,43,-100,-100,-100,0,0,100,0.00,40.00,0,-999,0,0.03
2013-5-18,57,51,48,-100,-100,-100,0,0,100,0.00,40.00,0,-999,0,0.02
2013-5-19,57,51,47,-100,-100,-100,0,0,100,0.00,40.00,0,-999,0,0.14
2013-5-20,66,52,44,-100,-100,-100,0,0,100,0.00,40.00,0,-999,0,0.02
2013-5-21,73,60,44,-100,-100,-100,0,0,100,0.00,40.00,0,-999,0,0.04
2013-5-22,63,52,41,-100,-100,-100,0,0,100,0.00,40.00,0,-999,0,0.77
2013-5-23,52,42,33,-100,-100,-100,0,0,100,0.00,40.00,0,-999,0,1.59
2013-5-24,59,46,39,-100,-100,-100,0,0,100,0.00,40.00,0,-999,0,0.24
2013-5-25,54,47,41,-100,-100,-100,0,0,100,0.00,40.00,0,-999,0,0.23
2013-5-26,65,52,38,-100,-100,-100,0,0,100,0.00,40.00,0,-999,0,0.01
2013-5-27,61,52,45,-100,-100,-100,0,0,100,0.00,40.00,0,-999,0,0.03
2013-5-28,59,50,44,-100,-100,-100,0,0,100,0.00,40.00,0,-999,0,0.20
2013-5-29,67,55,47,-100,-100,-100,0,0,100,0.00,40.00,0,-999,0,0.11
2013-5-30,55,49,46,-100,-100,-100,0,0,100,0.00,40.00,0,-999,0,0.06
2013-5-31,53,51,46,-100,-100,-100,0,0,100,0.00,40.00,0,-999,0,0.06
2013-6-1,65,53,43,-100,-100,-100,0,0,100,0.00,40.00,0,-999,0,0.01
2013-6-2,65,55,46,-100,-100,-100,0,0,100,0.00,40.00,0,-999,0,0.01
2013-6-3,57,52,47,-100,-100,-100,0,0,100,0.00,40.00,0,-999,0,0.21
2013-6-4,69,53,40,-100,-100,-100,0,0,100,0.00,40.00,0,-999,0,0.03
2013-6-5,76,62,45,-100,-100,-100,0,0,100,0.00,40.00,0,-999,0,0.01
2013-6-6,82,69,54,-100,-100,-100,0,0,100,0.00,40.00,0,-999,0,0.01
2013-6-7,77,64,56,-100,-100,-100,0,0,100,0.00,40.00,0,-999,0,0.01
2013-6-8,75,64,51,-100,-100,-100,0,0,100,0.00,40.00,0,-999,0,0.01
2013-6-9,74,65,53,-100,-100,-100,0,0,100,0.00,40.00,0,-999,0,0.01
2013-6-10,75,63,48,-100,-100,-100,0,0,100,0.00,40.00,0,-999,0,0.01
2013-6-11,75,60,49,-100,-100,-100,0,0,100,0.00,40.00,0,-999,0,0.11
2013-6-12,68,55,47,-100,-100,-100,0,0,100,0.00,40.00,0,-999,0,0.10
2013-6-13,63,56,51,-100,-100,-100,0,0,100,0.00,40.00,0,-999,0,0.01
2013-6-14,56,52,47,-100,-100,-100,0,0,100,0.00,40.00,0,-999,0,0.22
2013-6-15,73,59,47,-100,-100,-100,0,0,100,0.00,40.00,0,-999,0,0.01
2013-6-16,79,66,48,-100,-100,-100,0,0,100,0.00,40.00,0,-999,0,0.01
2013-6-17,83,67,52,-100,-100,-100,0,0,100,0.00,40.00,0,-999,0,0.01
2013-6-18,82,66,52,-100,-100,-100,0,0,100,0.00,40.00,0,-999,0,0.03
2013-6-19,66,56,50,-100,-100,-100,0,0,100,0.00,40.00,0,-999,0,0.83
2013-6-20,51,48,45,-100,-100,-100,0,0,100,0.00,40.00,0,-999,0,2.00
2013-6-22,68,62,50,-100,-100,-100,0,0,100,0.00,40.00,0,-999,0,0.02
2013-6-23,73,60,46,-100,-100,-100,0,0,100,0.00,40.00,0,-999,0,0.01
2013-6-24,61,58,55,-100,-100,-100,0,0,100,0.00,40.00,0,-999,0,0.11
2013-6-25,71,58,53,-100,-100,-100,0,0,100,0.00,40.00,0,-999,0,0.32
2013-6-26,70,59,49,-100,-100,-100,0,0,100,0.00,40.00,0,-999,0,0.11
2013-6-27,78,64,53,-100,-100,-100,0,0,100,0.00,40.00,0,-999,0,0.01
2013-6-28,86,70,53,-100,-100,-100,0,0,100,0.00,40.00,0,-999,0,0.01
2013-6-29,85,70,59,-100,-100,-100,0,0,100,0.00,40.00,0,-999,0,0.02
2013-6-30,88,72,56,-100,-100,-100,0,0,100,0.00,40.00,0,-999,0,0.02
2013-7-1,93,76,63,-100,-100,-100,0,0,100,0.00,40.00,0,-999,0,0.06
2013-7-2,96,79,65,-100,-100,-100,0,0,100,0.00,40.00,0,-999,0,0.01
2013-7-3,90,78,67,-100,-100,-100,0,0,100,0.00,40.00,0,-999,0,0.36
2013-7-4,86,74,61,-100,-100,-100,0,0,100,0.00,40.00,0,-999,0,0.01
2013-7-5,83,69,55,-100,-100,-100,0,0,100,0.00,40.00,0,-999,0,0.01
2013-7-6,80,62,51,-100,-100,-100,0,0,100,0.00,40.00,0,-999,0,0.01
2013-7-7,83,68,53,-100,-100,-100,0,0,100,0.00,40.00,0,-999,0,0.01
2013-7-8,78,62,54,-100,-100,-100,0,0,100,0.00,40.00,0,-999,0,0.11
2013-7-9,82,63,48,-100,-100,-100,0,0,100,0.00,40.00,0,-999,0,0.01
2013-7-10,88,72,51,-100,-100,-100,0,0,100,0.00,40.00,0,-999,0,0.01
2013-7-11,81,73,62,-100,-100,-100,0,0,100,0.00,40.00,0,-999,0,0.01
2013-7-12,79,69,53,-100,-100,-100,0,0,100,0.00,40.00,0,-999,0,0.01
2013-7-13,76,66,56,-100,-100,-100,0,0,100,0.00,40.00,0,-999,0,0.01
2013-7-14,81,67,49,-100,-100,-100,0,0,100,0.00,40.00,0,-999,0,0.01
2013-7-15,87,76,60,-100,-100,-100,0,0,100,0.00,40.00,0,-999,0,0.02
2013-7-16,84,68,53,-100,-100,-100,0,0,100,0.00,40.00,0,-999,0,0.01
2013-7-17,85,71,57,-100,-100,-100,0,0,100,0.00,40.00,0,-999,0,0.01
2013-7-18,86,78,64,-100,-100,-100,0,0,100,0.00,40.00,0,-999,0,0.01
2013-7-19,87,78,63,-100,-100,-100,0,0,100,0.00,40.00,0,-999,0,0.01
2013-7-20,91,79,64,-100,-100,-100,0,0,100,0.00,40.00,0,-999,0,0.01
2013-7-21,90,79,61,-100,-100,-100,0,0,100,0.00,40.00,0,-999,0,0.01
2013-7-22,90,79,60,-100,-100,-100,0,0,100,0.00,40.00,0,-999,0,0.01
2013-7-23,92,78,58,-100,-100,-100,0,0,100,0.00,40.00,0,-999,0,0.01
2013-7-24,92,80,65,-100,-100,-100,0,0,100,0.00,40.00,0,-999,0,0.01
2013-7-25,91,74,60,-100,-100,-100,0,0,100,0.00,40.00,0,-999,0,0.02
2013-7-26,93,78,66,-100,-100,-100,0,0,100,0.00,40.00,0,-999,0,0.01
2013-7-27,88,79,64,-100,-100,-100,0,0,100,0.00,40.00,0,-999,0,0.01
2013-7-28,83,69,50,-100,-100,-100,0,0,100,0.00,40.00,0,-999,0,0.01
2013-7-29,78,65,54,-100,-100,-100,0,0,100,0.00,40.00,0,-999,0,0.01
2013-7-30,81,63,53,-100,-100,-100,0,0,100,0.00,40.00,0,-999,0,0.01
2013-7-31,88,69,52,-100,-100,-100,0,0,100,0.00,40.00,0,-999,0,0.01
2013-8-1,73,64,58,-100,-100,-100,0,0,100,0.00,40.00,0,-999,0,0.10
2013-8-2,62,58,56,-100,-100,-100,0,0,100,0.00,40.00,0,-999,0,0.99
2013-8-3,70,60,54,-100,-100,-100,0,0,100,0.00,40.00,0,-999,0,0.21
2013-8-4,80,64,50,-100,-100,-100,0,0,100,0.00,40.00,0,-999,0,0.01
2013-8-5,81,63,52,-100,-100,-100,0,0,100,0.00,40.00,0,-999,0,0.01
2013-8-6,83,65,50,-100,-100,-100,0,0,100,0.00,40.00,0,-999,0,0.01
2013-8-7,85,69,56,-100,-100,-100,0,0,100,0.00,40.00,0,-999,0,0.02
2013-8-8,84,69,58,-100,-100,-100,0,0,100,0.00,40.00,0,-999,0,0.01
2013-8-9,86,70,55,-100,-100,-100,0,0,100,0.00,40.00,0,-999,0,0.03
2013-8-10,88,72,61,-100,-100,-100,0,0,100,0.00,40.00,0,-999,0,0.01
2013-8-11,86,69,58,-100,-100,-100,0,0,100,0.00,40.00,0,-999,0,0.01
2013-8-12,87,71,59,-100,-100,-100,0,0,100,0.00,40.00,0,-999,0,0.04
2013-8-13,82,67,58,-100,-100,-100,0,0,100,0.00,40.00,0,-999,0,0.32
2013-8-14,85,65,52,-100,-100,-100,0,0,100,0.00,40.00,0,-999,0,0.01
2013-8-15,90,73,58,-100,-100,-100,0,0,100,0.00,40.00,0,-999,0,0.01
2013-8-16,88,76,56,-100,-100,-100,0,0,100,0.00,40.00,0,-999,0,0.01
2013-8-17,85,73,60,-100,-100,-100,0,0,100,0.00,40.00,0,-999,0,0.01
2013-8-18,86,76,64,-100,-100,-100,0,0,100,0.00,40.00,0,-999,0,0.01
2013-8-19,85,74,54,-100,-100,-100,0,0,100,0.00,40.00,0,-999,0,0.01
2013-8-20,83,70,56,-100,-100,-100,0,0,100,0.00,40.00,0,-999,0,0.01
2013-8-21,82,65,48,-100,-100,-100,0,0,100,0.00,40.00,0,-999,0,0.01
2013-8-22,85,65,49,-100,-100,-100,0,0,100,0.00,40.00,0,-999,0,0.01
2013-8-23,83,70,61,-100,-100,-100,0,0,100,0.00,40.00,0,-999,0,0.10
2013-8-24,84,72,55,-100,-100,-100,0,0,100,0.00,40.00,0,-999,0,0.10
2013-8-25,84,70,56,-100,-100,-100,0,0,100,0.00,40.00,0,-999,0,0.01
2013-8-26,81,68,54,-100,-100,-100,0,0,100,0.00,40.00,0,-999,0,0.02
2013-8-27,79,69,60,-100,-100,-100,0,0,100,0.00,40.00,0,-999,0,0.02
2013-8-28,79,67,59,-100,-100,-100,0,0,100,0.00,40.00,0,-999,0,0.06
2013-8-29,84,65,54,-100,-100,-100,0,0,100,0.00,40.00,0,-999,0,0.22
2013-8-30,76,68,56,-100,-100,-100,0,0,100,0.00,40.00,0,-999,0,0.01
2013-8-31,79,65,48,-100,-100,-100,0,0,100,0.00,40.00,0,-999,0,0.01
2013-9-1,87,67,47,-100,-100,-100,0,0,100,0.00,40.00,0,-999,0,0.02
2013-9-2,79,67,56,-100,-100,-100,0,0,100,0.00,40.00,0,-999,0,0.01
2013-9-3,64,61,56,-100,-100,-100,0,0,100,0.00,40.00,0,-999,0,0.03
2013-9-4,85,64,53,-100,-100,-100,0,0,100,0.00,40.00,0,-999,0,0.02
2013-9-5,76,65,59,-100,-100,-100,0,0,100,0.00,40.00,0,-999,0,0.15
2013-9-6,77,66,57,-100,-100,-100,0,0,100,0.00,40.00,0,-999,0,0.04
2013-9-7,77,66,58,-100,-100,-100,0,0,100,0.00,40.00,0,-999,0,0.01
2013-9-8,61,57,53,-100,-100,-100,0,0,100,0.00,40.00,0,-999,0,0.29
2013-9-9,71,60,56,-100,-100,-100,0,0,100,0.00,40.00,0,-999,0,0.13
2013-9-10,79,63,51,-100,-100,-100,0,0,100,0.00,40.00,0,-999,0,0.01
2013-9-11,85,67,55,-100,-100,-100,0,0,100,0.00,40.00,0,-999,0,0.01
2013-9-12,85,67,51,-100,-100,-100,0,0,100,0.00,40.00,0,-999,0,0.01
2013-9-13,80,62,50,-100,-100,-100,0,0,100,0.00,40.00,0,-999,0,0.01
2013-9-14,81,68,57,-100,-100,-100,0,0,100,0.00,40.00,0,-999,0,0.05
2013-9-15,84,69,53,-100,-100,-100,0,0,100,0.00,40.00,0,-999,0,0.03
2013-9-16,75,65,55,-100,-100,-100,0,0,100,0.00,40.00,0,-999,0,0.11
2013-9-17,70,59,49,-100,-100,-100,0,0,100,0.00,40.00,0,-999,0,0.20
2013-9-18,54,51,46,-100,-100,-100,0,0,100,0.00,40.00,0,-999,0,1.50
2013-9-19,60,50,46,-100,-100,-100,0,0,100,0.00,40.00,0,-999,0,0.11
2013-9-20,67,53,42,-100,-100,-100,0,0,100,0.00,40.00,0,-999,0,0.01
2013-9-21,67,53,43,-100,-100,-100,0,0,100,0.00,40.00,0,-999,0,0.01
2013-9-22,62,52,43,-100,-100,-100,0,0,100,0.00,40.00,0,-999,0,0.15
2013-9-23,56,52,46,-100,-100,-100,0,0,100,0.00,40.00,0,-999,0,0.32
2013-9-24,53,48,43,-100,-100,-100,0,0,100,0.00,40.00,0,-999,0,0.10
2013-9-25,52,46,43,-100,-100,-100,0,0,100,0.00,40.00,0,-999,0,0.11
2013-9-26,53,46,40,-100,-100,-100,0,0,100,0.00,40.00,0,-999,0,0.01
2013-9-27,51,44,35,-100,-100,-100,0,0,100,0.00,40.00,0,-999,0,0.01
2013-9-28,58,51,44,-100,-100,-100,0,0,100,0.00,40.00,0,-999,0,0.03
2013-9-29,58,51,47,-100,-100,-100,0,0,100,0.00,40.00,0,-999,0,0.71
2013-9-30,50,47,43,-100,-100,-100,0,0,100,0.00,40.00,0,-999,0,0.60
2013-10-1,44,42,41,-100,-100,-100,0,0,100,0.00,40.00,0,-999,0,0.14
2013-10-2,50,42,37,-100,-100,-100,0,0,100,0.00,40.00,0,-999,0,0.08
2013-10-3,48,40,34,-100,-100,-100,0,0,100,0.00,40.00,0,-999,0,0.01
2013-10-4,54,38,30,-100,-100,-100,0,0,100,0.00,40.00,0,-999,0,0.01
2013-10-5,56,46,36,-100,-100,-100,0,0,100,0.00,40.00,0,-999,0,0.01
2013-10-6,58,51,45,-100,-100,-100,0,0,100,0.00,40.00,0,-999,0,0.02
2013-10-7,61,53,41,-100,-100,-100,0,0,100,0.00,40.00,0,-999,0,0.12
2013-10-8,51,45,40,-100,-100,-100,0,0,100,0.00,40.00,0,-999,0,0.20
2013-10-9,53,41,35,-100,-100,-100,0,0,100,0.00,40.00,0,-999,0,0.01
2013-10-10,45,40,34,-100,-100,-100,0,0,100,0.00,40.00,0,-999,0,0.13
2013-10-11,49,42,38,-100,-100,-100,0,0,100,0.00,40.00,0,-999,0,0.09
2013-10-12,46,39,34,-100,-100,-100,0,0,100,0.00,40.00,0,-999,0,0.01
2013-10-13,49,39,31,-100,-100,-100,0,0,100,0.00,40.00,0,-999,0,0.01
2013-10-14,54,44,34,-100,-100,-100,0,0,100,0.00,40.00,0,-999,0,0.01
2013-10-15,49,36,30,-100,-100,-100,0,0,100,0.00,40.00,0,-999,0,0.01
2013-10-16,46,40,37,-100,-100,-100,0,0,100,0.00,40.00,0,-999,0,0.01
2013-10-17,51,42,37,-100,-100,-100,0,0,100,0.00,40.00,0,-999,0,0.01
2013-10-18,50,38,32,-100,-100,-100,0,0,100,0.00,40.00,0,-999,0,0.01
2013-10-19,50,42,34,-100,-100,-100,0,0,100,0.00,40.00,0,-999,0,0.01
2013-10-20,54,39,32,-100,-100,-100,0,0,100,0.00,40.00,0,-999,0,0.01
2013-10-21,52,41,33,-100,-100,-100,0,0,100,0.00,40.00,0,-999,0,0.01
2013-10-22,46,42,36,-100,-100,-100,0,0,100,0.00,40.00,0,-999,0,0.01
2013-10-23,50,40,34,-100,-100,-100,0,0,100,0.00,40.00,0,-999,0,0.01
2013-10-24,51,42,35,-100,-100,-100,0,0,100,0.00,40.00,0,-999,0,0.03
2013-10-25,51,39,32,-100,-100,-100,0,0,100,0.00,40.00,0,-999,0,0.01
2013-10-26,45,36,31,-100,-100,-100,0,0,100,0.00,40.00,0,-999,0,0.01
2013-10-27,46,37,32,-100,-100,-100,0,0,100,0.00,40.00,0,-999,0,0.01
2013-10-28,35,31,28,-100,-100,-100,0,0,100,0.00,40.00,0,-999,0,0.01
2013-10-29,36,26,20,-100,-100,-100,0,0,100,0.00,40.00,0,-999,0,0.02
2013-10-30,39,29,22,-100,-100,-100,0,0,100,0.00,40.00,0,-999,0,0.03
2013-10-31,40,36,32,-100,-100,-100,0,0,100,0.00,40.00,0,-999,0,0.06
2013-11-1,46,38,33,-100,-100,-100,0,0,100,0.00,40.00,0,-999,0,0.01
2013-11-2,45,38,34,-100,-100,-100,0,0,100,0.00,40.00,0,-999,0,0.42
2013-11-3,40,35,30,-100,-100,-100,0,0,100,0.00,40.00,0,-999,0,0.54
2013-11-4,33,30,28,-100,-100,-100,0,0,100,0.00,40.00,0,-999,0,0.33
2013-11-5,36,31,28,-100,-100,-100,0,0,100,0.00,40.00,0,-999,0,0.08
2013-11-6,35,32,30,-100,-100,-100,0,0,100,0.00,40.00,0,-999,0,0.21
2013-11-7,38,32,29,-100,-100,-100,0,0,100,0.00,40.00,0,-999,0,0.80
2013-11-8,44,37,35,-100,-100,-100,0,0,100,0.00,40.00,0,-999,0,0.39
2013-11-9,39,34,32,-100,-100,-100,0,0,100,0.00,40.00,0,-999,0,0.01
2013-11-10,34,33,33,-100,-100,-100,0,0,100,0.00,40.00,0,-999,0,0.86
2013-11-11,38,35,33,-100,-100,-100,0,0,100,0.00,40.00,0,-999,0,0.33
2013-11-12,38,35,34,-100,-100,-100,0,0,100,0.00,40.00,0,-999,0,0.08
2013-11-13,42,37,35,-100,-100,-100,0,0,100,0.00,40.00,0,-999,0,0.22
2013-11-14,42,38,36,-100,-100,-100,0,0,100,0.00,40.00,0,-999,0,0.10
2013-11-15,41,38,35,-100,-100,-100,0,0,100,0.00,40.00,0,-999,0,0.02
2013-11-16,35,32,26,-100,-100,-100,0,0,100,0.00,40.00,0,-999,0,0.68
2013-11-17,40,32,26,-100,-100,-100,0,0,100,0.00,40.00,0,-999,0,0.56
2013-11-18,45,42,36,-100,-100,-100,0,0,100,0.00,40.00,0,-999,0,0.09
2013-11-19,50,44,38,-100,-100,-100,0,0,100,0.00,40.00,0,-999,0,0.54
2013-11-20,38,27,16,-100,-100,-100,0,0,100,0.00,40.00,0,-999,0,0.09
2013-11-21,19,15,12,-100,-100,-100,0,0,100,0.00,40.00,0,-999,0,0.01
2013-11-22,21,16,12,-100,-100,-100,0,0,100,0.00,40.00,0,-999,0,0.01
2013-11-23,20,17,14,-100,-100,-100,0,0,100,0.00,40.00,0,-999,0,0.01
2013-11-24,30,21,16,-100,-100,-100,0,0,100,0.00,40.00,0,-999,0,0.02
2013-11-25,30,23,17,-100,-100,-100,0,0,100,0.00,40.00,0,-999,0,0.01
2013-11-26,31,25,22,-100,-100,-100,0,0,100,0.00,40.00,0,-999,0,0.01
2013-11-27,28,24,21,-100,-100,-100,0,0,100,0.00,40.00,0,-999,0,0.04
2013-11-28,27,25,24,-100,-100,-100,0,0,100,0.00,40.00,0,-999,0,0.01
2013-11-29,30,28,25,-100,-100,-100,0,0,100,0.00,40.00,0,-999,0,0.12
2013-11-30,34,32,29,-100,-100,-100,0,0,100,0.00,40.00,0,-999,0,0.20
2013-12-1,37,35,33,-100,-100,-100,0,0,100,0.00,40.00,0,-999,0,0.96
2013-12-2,39,28,14,-100,-100,-100,0,0,100,0.00,40.00,0,-999,0,0.30
2013-12-3,14,12,8,-100,-100,-100,0,0,100,0.00,40.00,0,-999,0,0.06
2013-12-4,13,8,3,-100,-100,-100,0,0,100,0.00,40.00,0,-999,0,0.02
2013-12-5,8,5,-1,-100,-100,-100,0,0,100,0.00,40.00,0,-999,0,0.02
2013-12-6,2,-4,-9,-100,-100,-100,0,0,100,0.00,40.00,0,-999,0,0.01
2013-12-7,-6,-9,-12,-100,-100,-100,0,0,100,0.00,40.00,0,-999,0,0.02
2013-12-8,4,-1,-9,-100,-100,-100,0,0,100,0.00,40.00,0,-999,0,0.07
2013-12-9,12,8,4,-100,-100,-100,0,0,100,0.00,40.00,0,-999,0,0.01
2013-12-10,21,17,12,-100,-100,-100,0,0,100,0.00,40.00,0,-999,0,0.22
2013-12-11,27,24,20,-100,-100,-100,0,0,100,0.00,40.00,0,-999,0,0.22
2013-12-12,30,27,24,-100,-100,-100,0,0,100,0.00,40.00,0,-999,0,0.01
2013-12-13,34,31,28,-100,-100,-100,0,0,100,0.00,40.00,0,-999,0,0.11
2013-12-14,37,34,33,-100,-100,-100,0,0,100,0.00,40.00,0,-999,0,0.21
2013-12-15,46,35,32,-100,-100,-100,0,0,100,0.00,40.00,0,-999,0,0.11
2013-12-16,46,39,31,-100,-100,-100,0,0,100,0.00,40.00,0,-999,0,0.01
2013-12-17,38,32,27,-100,-100,-100,0,0,100,0.00,40.00,0,-999,0,0.05
2013-12-18,45,33,18,-100,-100,-100,0,0,100,0.00,40.00,0,-999,0,0.39
2013-12-19,18,12,8,-100,-100,-100,0,0,100,0.00,40.00,0,-999,0,0.23
2013-12-20,22,18,13,-100,-100,-100,0,0,100,0.00,40.00,0,-999,0,0.15
2013-12-21,23,21,18,-100,-100,-100,0,0,100,0.00,40.00,0,-999,0,0.10
2013-12-22,29,26,23,-100,-100,-100,0,0,100,0.00,40.00,0,-999,0,0.01
2013-12-23,38,32,28,-100,-100,-100,0,0,100,0.00,40.00,0,-999,0,0.63
2013-12-24,37,35,30,-100,-100,-100,0,0,100,0.00,40.00,0,-999,0,0.19
2013-12-25,30,28,23,-100,-100,-100,0,0,100,0.00,40.00,0,-999,0,0.05
2013-12-26,33,30,27,-100,-100,-100,0,0,100,0.00,40.00,0,-999,0,0.01
2013-12-27,37,31,26,-100,-100,-100,0,0,100,0.00,40.00,0,-999,0,0.07
2013-12-28,40,30,26,-100,-100,-100,0,0,100,0.00,40.00,0,-999,0,0.07
2013-12-29,35,30,26,-100,-100,-100,0,0,100,0.00,40.00,0,-999,0,0.01
2013-12-30,36,32,29,-100,-100,-100,0,0,100,0.00,40.00,0,-999,0,0.09
2013-12-31,39,36,33,-100,-100,-100,0,0,100,0.00,40.00,0,-999,0,0.24
2014-1-1,38,32,27,-100,-100,-100,0,0,100,0.00,40.00,0,-999,0,0.01
2014-1-2,39,33,27,-100,-100,-100,0,0,100,0.00,40.00,0,-999,0,0.11